Previsão horária em Cergy-Pontoise

Hoje, 25 Julho, Domingo

Tempo Temperatura Precipitação Vento Pressão Humidade
00:00 +18°C° 0 mm 2 m/s 751 mmHg 92%
01:00 +18°C° 0.5 mm 3 m/s 751 mmHg 92%
02:00 +18°C° 0.5 mm 3 m/s 751 mmHg 93%
03:00 +18°C° 0.5 mm 4 m/s 750 mmHg 94%
04:00 +18°C° 0.1 mm 3 m/s 750 mmHg 93%
05:00 +18°C° 0.1 mm 3 m/s 751 mmHg 93%
06:00 +18°C° 0.1 mm 3 m/s 751 mmHg 92%
07:00 +19°C° 0.8 mm 4 m/s 751 mmHg 87%
08:00 +20°C° 0.8 mm 4 m/s 750 mmHg 83%
09:00 +21°C° 0.8 mm 5 m/s 750 mmHg 78%
10:00 +21°C° 0.7 mm 5 m/s 751 mmHg 76%
11:00 +21°C° 0.7 mm 4 m/s 751 mmHg 75%
12:00 +21°C° 0.7 mm 4 m/s 751 mmHg 74%
13:00 +21°C° 0.3 mm 4 m/s 751 mmHg 72%
14:00 +22°C° 0.3 mm 4 m/s 751 mmHg 70%
15:00 +22°C° 0.3 mm 4 m/s 750 mmHg 68%
16:00 +22°C° 0.3 mm 4 m/s 750 mmHg 72%
17:00 +21°C° 0.3 mm 3 m/s 750 mmHg 76%
18:00 +21°C° 0.3 mm 3 m/s 750 mmHg 79%
19:00 +20°C° 0 mm 3 m/s 751 mmHg 83%
20:00 +18°C° 0 mm 3 m/s 752 mmHg 87%
21:00 +17°C° 0 mm 2 m/s 752 mmHg 92%
22:00 +17°C° 0 mm 2 m/s 752 mmHg 93%
23:00 +16°C° 0 mm 2 m/s 752 mmHg 94%

Amanhã, 26 Julho, Segunda-feira

Tempo Temperatura Precipitação Vento Pressão Humidade
00:00 +16°C° 0 mm 2 m/s 753 mmHg 95%
01:00 +16°C° 0 mm 2 m/s 753 mmHg 94%
02:00 +16°C° 0 mm 3 m/s 753 mmHg 94%
03:00 +16°C° 0 mm 3 m/s 753 mmHg 93%
04:00 +16°C° 0 mm 3 m/s 753 mmHg 92%
05:00 +17°C° 0 mm 3 m/s 753 mmHg 91%
06:00 +17°C° 0 mm 3 m/s 754 mmHg 90%
07:00 +17°C° 0 mm 3 m/s 754 mmHg 88%
08:00 +18°C° 0 mm 3 m/s 754 mmHg 86%
09:00 +19°C° 0 mm 3 m/s 754 mmHg 85%
10:00 +20°C° 0.4 mm 3 m/s 754 mmHg 81%
11:00 +21°C° 0.4 mm 3 m/s 754 mmHg 77%
12:00 +22°C° 0.4 mm 3 m/s 754 mmHg 73%
13:00 +22°C° 0.5 mm 3 m/s 754 mmHg 70%
14:00 +24°C° 0.5 mm 3 m/s 754 mmHg 68%
15:00 +25°C° 0.5 mm 3 m/s 754 mmHg 65%
16:00 +24°C° 0.5 mm 3 m/s 754 mmHg 68%
17:00 +24°C° 0.5 mm 2 m/s 754 mmHg 72%
18:00 +23°C° 0.5 mm 2 m/s 754 mmHg 75%
19:00 +21°C° 0.2 mm 2 m/s 754 mmHg 78%
20:00 +21°C° 0.2 mm 1 m/s 755 mmHg 81%
21:00 +20°C° 0.2 mm 1 m/s 755 mmHg 84%
22:00 +20°C° 0.2 mm 1 m/s 755 mmHg 85%
23:00 +19°C° 0.2 mm 1 m/s 755 mmHg 86%

Depois de amanhã, 27 Julho, Terça-feira

Tempo Temperatura Precipitação Vento Pressão Humidade
00:00 +19°C° 0.2 mm 1 m/s 755 mmHg 86%
01:00 +19°C° 0.2 mm 1 m/s 754 mmHg 87%
02:00 +19°C° 0.2 mm 1 m/s 754 mmHg 87%
03:00 +18°C° 0.2 mm 1 m/s 754 mmHg 87%
04:00 +18°C° 0.4 mm 1 m/s 754 mmHg 88%
05:00 +18°C° 0.4 mm 1 m/s 754 mmHg 89%
06:00 +17°C° 0.4 mm 2 m/s 755 mmHg 90%
07:00 +18°C° 0.2 mm 2 m/s 755 mmHg 87%
08:00 +18°C° 0.2 mm 3 m/s 755 mmHg 84%
09:00 +19°C° 0.2 mm 3 m/s 755 mmHg 81%
10:00 +20°C° 0.1 mm 4 m/s 755 mmHg 71%
11:00 +22°C° 0.1 mm 4 m/s 755 mmHg 61%
12:00 +25°C° 0.1 mm 4 m/s 755 mmHg 52%
13:00 +25°C° 0 mm 5 m/s 755 mmHg 50%
14:00 +26°C° 0 mm 5 m/s 754 mmHg 49%
15:00 +26°C° 0 mm 5 m/s 754 mmHg 48%
16:00 +23°C° 0.7 mm 5 m/s 754 mmHg 59%
17:00 +21°C° 0.7 mm 5 m/s 754 mmHg 70%
18:00 +19°C° 0.7 mm 5 m/s 754 mmHg 81%
19:00 +19°C° 0.6 mm 4 m/s 754 mmHg 84%
20:00 +18°C° 0.6 mm 4 m/s 754 mmHg 88%
21:00 +18°C° 0.6 mm 3 m/s 754 mmHg 91%
22:00 +17°C° 0.2 mm 3 m/s 754 mmHg 92%
23:00 +17°C° 0.2 mm 3 m/s 755 mmHg 93%

28 Julho, Quarta-feira

Tempo Temperatura Precipitação Vento Pressão Humidade
00:00 +17°C° 0.2 mm 2 m/s 755 mmHg 93%
01:00 +16°C° 0 mm 2 m/s 755 mmHg 94%
02:00 +15°C° 0 mm 2 m/s 755 mmHg 94%
03:00 +15°C° 0 mm 1 m/s 755 mmHg 94%
04:00 +15°C° 0 mm 2 m/s 755 mmHg 92%
05:00 +15°C° 0 mm 2 m/s 755 mmHg 90%
06:00 +16°C° 0 mm 2 m/s 755 mmHg 88%
07:00 +17°C° 0 mm 2 m/s 755 mmHg 81%
08:00 +19°C° 0 mm 3 m/s 755 mmHg 73%
09:00 +20°C° 0 mm 3 m/s 755 mmHg 65%
10:00 +21°C° 0.1 mm 4 m/s 755 mmHg 63%
11:00 +22°C° 0.1 mm 4 m/s 755 mmHg 61%
12:00 +22°C° 0.1 mm 5 m/s 754 mmHg 58%
13:00 +23°C° 0.1 mm 5 m/s 754 mmHg 57%
14:00 +23°C° 0.1 mm 5 m/s 754 mmHg 56%
15:00 +23°C° 0.1 mm 5 m/s 754 mmHg 56%
16:00 +23°C° 0.1 mm 4 m/s 754 mmHg 58%
17:00 +22°C° 0.1 mm 4 m/s 754 mmHg 60%
18:00 +22°C° 0.1 mm 4 m/s 754 mmHg 62%
19:00 +21°C° 0.1 mm 3 m/s 754 mmHg 67%
20:00 +19°C° 0.1 mm 3 m/s 754 mmHg 72%
21:00 +18°C° 0.1 mm 2 m/s 754 mmHg 78%
22:00 +18°C° 0 mm 2 m/s 754 mmHg 78%
23:00 +17°C° 0 mm 2 m/s 754 mmHg 79%

29 Julho, Quinta-feira

Tempo Temperatura Precipitação Vento Pressão Humidade
00:00 +17°C° 0 mm 3 m/s 754 mmHg 79%
01:00 +16°C° 0 mm 3 m/s 754 mmHg 82%
02:00 +14°C° 0 mm 3 m/s 754 mmHg 85%
03:00 +14°C° 0 mm 3 m/s 754 mmHg 87%
04:00 +14°C° 0 mm 3 m/s 754 mmHg 86%
05:00 +14°C° 0 mm 4 m/s 755 mmHg 85%
06:00 +14°C° 0 mm 4 m/s 755 mmHg 83%
07:00 +17°C° 0 mm 4 m/s 755 mmHg 74%
08:00 +17°C° 0 mm 5 m/s 756 mmHg 65%
09:00 +20°C° 0 mm 5 m/s 756 mmHg 56%
10:00 +21°C° 0 mm 5 m/s 756 mmHg 52%
11:00 +22°C° 0 mm 5 m/s 756 mmHg 47%
12:00 +23°C° 0 mm 5 m/s 756 mmHg 43%
13:00 +23°C° 0 mm 4 m/s 756 mmHg 42%
14:00 +25°C° 0 mm 4 m/s 756 mmHg 41%
15:00 +25°C° 0 mm 4 m/s 756 mmHg 39%
16:00 +24°C° 0 mm 3 m/s 756 mmHg 43%
17:00 +24°C° 0 mm 3 m/s 756 mmHg 47%
18:00 +23°C° 0 mm 2 m/s 756 mmHg 51%
19:00 +21°C° 0 mm 2 m/s 756 mmHg 55%
20:00 +19°C° 0 mm 2 m/s 756 mmHg 59%
21:00 +19°C° 0 mm 1 m/s 756 mmHg 63%
22:00 +18°C° 0 mm 1 m/s 756 mmHg 64%
23:00 +18°C° 0 mm 1 m/s 756 mmHg 65%

30 Julho, Sexta-feira

Tempo Temperatura Precipitação Vento Pressão Humidade
00:00 +18°C° 0 mm 1 m/s 756 mmHg 66%
01:00 +18°C° 0 mm 1 m/s 756 mmHg 66%
02:00 +16°C° 0 mm 1 m/s 756 mmHg 67%
03:00 +16°C° 0 mm 1 m/s 756 mmHg 67%
04:00 +16°C° 0 mm 1 m/s 756 mmHg 68%
05:00 +16°C° 0 mm 1 m/s 756 mmHg 68%
06:00 +16°C° 0 mm 1 m/s 756 mmHg 69%
07:00 +18°C° 0 mm 2 m/s 756 mmHg 64%
08:00 +19°C° 0 mm 2 m/s 756 mmHg 60%
09:00 +21°C° 0 mm 3 m/s 757 mmHg 55%
10:00 +22°C° 0 mm 3 m/s 756 mmHg 50%
11:00 +23°C° 0 mm 4 m/s 756 mmHg 45%
12:00 +25°C° 0 mm 4 m/s 756 mmHg 40%
13:00 +25°C° 0 mm 4 m/s 756 mmHg 41%
14:00 +25°C° 0 mm 4 m/s 756 mmHg 41%
15:00 +26°C° 0 mm 4 m/s 756 mmHg 41%
16:00 +25°C° 0 mm 4 m/s 756 mmHg 44%
17:00 +25°C° 0 mm 3 m/s 756 mmHg 47%
18:00 +24°C° 0 mm 3 m/s 756 mmHg 51%
19:00 +21°C° 0 mm 2 m/s 756 mmHg 58%
20:00 +20°C° 0 mm 2 m/s 757 mmHg 65%
21:00 +19°C° 0 mm 1 m/s 757 mmHg 72%
22:00 +19°C° 0 mm 1 m/s 757 mmHg 74%
23:00 +18°C° 0 mm 1 m/s 757 mmHg 77%
Mostrar mais

Necessitamos do seu Consentimento

A Meteoprog e os seus Fornecedores de Serviços podem armazenar e aceder a dados pessoais como cookies, identificadores do dispositivo ou outras tecnologias semelhantes existentes no seu dispositivo e processar estes dados para personalizar conteúdos e anúncios, assim como funcionalidades nas redes sociais e análise de tráfego.

  • Armazenar e/ou aceder a informações no seu dispositivo

    Os cookies, identificadores do dispositivo ou outras informações podem ser armazenados ou acedidos no seu dispositivo, para os fins acima indicados.

  • Anúncios e conteúdos personalizados, medição de anúncios e conteúdos, dados sobre o público-alvo e desenvolvimento de produtos

    Os anúncios e os conteúdos podem ser personalizados com base num perfil. Podem ser adicionados dados adicionais para uma maior personalização dos anúncios e dos conteúdos. A eficácia dos anúncios e dos conteúdos pode ser medida. Podem ser obtidas informações sobre o público que visualizou os anúncios e os conteúdos. Estes dados podem ser usados para desenvolver ou melhorar sistemas, softwares ou a experiência do utilizador.

Ao clicar em "Eu concordo”, permitirá o uso de cookies, identificadores do dispositivo e web beacons mencionados ou outras tecnologias semelhantes. As configurações do navegador do seu dispositivo podem ser alteradas.

Para certos fins, podem ser invocados interesses legítimos ao invés de consentimento. Pode ler mais informação sobre este assunto na nossa Política de Privacidade e Cookies.